Printer-friendly version

IAU Minor Planet Center

Minor Planet Center

MPEC 2007-T62 : 2007 TV18

The following Minor Planet Electronic Circular may be linked-to from your own Web pages, but must not otherwise be redistributed electronically.


Read MPEC 2007-T61 Read MPEC 2007-T63


M.P.E.C. 2007-T62                                Issued 2007 Oct. 10, 20:09 UT

     The Minor Planet Electronic Circulars contain information on unusual
         minor planets and routine data on comets.  They are published
   on behalf of Commission 20 of the International Astronomical Union by the
          Minor Planet Center, Smithsonian Astrophysical Observatory,
                          Cambridge, MA 02138, U.S.A.

             Prepared using the Tamkin Foundation Computer Network

                              MPC@CFA.HARVARD.EDU
          URL http://www.cfa.harvard.edu/iau/mpc.html  ISSN 1523-6714

                                   2007 TV18

Observations:
     K07T18V* C2007 10 09.20375 21 59 53.41 -09 17 53.1          20.6 V ET062G96
     K07T18V  C2007 10 09.21034 21 59 56.83 -09 17 33.0          20.8 V ET062G96
     K07T18V  C2007 10 09.21692 22 00 00.21 -09 17 13.5          20.6 V ET062G96
     K07T18V  C2007 10 09.22353 22 00 03.60 -09 16 53.4          20.3 V ET062G96
     K07T18V  C2007 10 09.26220 22 00 23.65 -09 14 56.9          20.9 V ET062G96
     K07T18V  C2007 10 09.26387 22 00 24.51 -09 14 51.3          20.6 V ET062G96
     K07T18V  C2007 10 09.26566 22 00 25.41 -09 14 46.3          20.1 V ET062G96
     K07T18V  C2007 10 09.26730 22 00 26.31 -09 14 41.7          20.2 V ET062G96
     K07T18V  C2007 10 10.17345 22 08 18.56 -08 31 12.1          21.1 V ET062G96
     K07T18V  C2007 10 10.17403 22 08 18.81 -08 31 10.9          20.6 V ET062G96
     K07T18V  C2007 10 10.17985 22 08 21.55 -08 30 54.8          20.9 V ET062G96
     K07T18V  C2007 10 10.18039 22 08 21.80 -08 30 52.9          20.5 V ET062G96
     K07T18V  C2007 10 10.18626 22 08 24.57 -08 30 36.5          20.4 V ET062G96
     K07T18V  C2007 10 10.18681 22 08 24.79 -08 30 35.1          20.2 V ET062G96
     K07T18V  C2007 10 10.19262 22 08 27.56 -08 30 19.2          20.1 V ET062G96
     K07T18V  C2007 10 10.19315 22 08 27.78 -08 30 17.7          20.5 V ET062G96

Observer details:
G96 Mt. Lemmon Survey.  Observer E. Beshore.  Measurers E. C. Beshore,
    A. Boattini, G. J. Garradd, A. R. Gibbs, A. D. Grauer, R. E. Hill,
    R. A. Kowalski, S. M. Larson, R. H. McNaught.  1.5-m reflector + CCD.

Orbital elements:
2007 TV18                                                Earth MOID = 0.0014 AU
Epoch 2007 Oct. 27.0 TT = JDT 2454400.5                 MPC
M  59.65497              (2000.0)            P               Q
n   0.69442219     Peri.  290.57752     +0.24636854     +0.96917445
a   1.2629524      Node   353.68434     -0.88280768     +0.22362349
e   0.3583440      Incl.    0.96569     -0.39994142     +0.10340904
P   1.42           H   23.4           G   0.15           U   9
Residuals in seconds of arc
071009 G96  0.1+  0.1-    071009 G96  0.4-  0.0     071010 G96  0.2+  0.2+
071009 G96  0.3+  0.2+    071009 G96  0.4+  0.3-    071010 G96  0.4-  0.1+
071009 G96  0.1-  0.1-    071010 G96  0.2+  0.2+    071010 G96  0.3+  0.2-
071009 G96  0.5-  0.0     071010 G96  0.1-  0.2-    071010 G96  0.1-  0.1-
071009 G96  0.1+  0.1-    071010 G96  0.0   0.3-
071009 G96  0.0   0.4+    071010 G96  0.1-  0.1+

Ephemeris:
2007 TV18                a,e,i = 1.26, 0.36, 1                   q = 0.8104
Date    TT    R. A. (2000) Decl.     Delta      r     Elong.  Phase     V
2007 10 07    21 37.49   -11 16.9    0.100    1.066   129.6    46.2    20.3
2007 10 12    22 22.19   -07 11.7    0.129    1.096   136.5    38.9    20.7
2007 10 17    22 50.85   -04 24.0    0.163    1.125   139.2    35.4    21.2
2007 10 22    23 10.98   -02 24.0    0.199    1.154   139.6    34.0    21.6
2007 10 27    23 26.30   -00 52.6    0.238    1.183   138.8    33.6    22.1

Sonia Keys                   (C) Copyright 2007 MPC           M.P.E.C. 2007-T62

Read MPEC 2007-T61 Read MPEC 2007-T63


Our Web policy. Index to the CBAT/MPC/ICQ pages.


Valid HTML 4.01!